Weather reports worldwide

Advertisment
Lons-Le-Saunier, France (7390): temperature & dewpoint: 20.03.2019 20:00:00 - 26.03.2019 20:00:00 (CET)Lons-Le-Saunier, France (7390): wind speed & gusts: 20.03.2019 20:00:00 - 26.03.2019 20:00:00 (CET)Lons-Le-Saunier, France (7390): wind direction: 20.03.2019 20:00:00 - 26.03.2019 20:00:00 (CET)Lons-Le-Saunier, France (7390): precipitation: 20.03.2019 20:00:00 - 26.03.2019 20:00:00 (CET)
Date & Time tt [°C] td [°C] ff [km/h] ff [kn] fx [km/h] fx [kn] dd rr [mm]
26.03.2019 20:00:00 - - - - - - - -
26.03.2019 19:00:00 8,6 -1,8 21 11 44 24 NNE -
26.03.2019 18:00:00 10,2 -1,5 22 12 54 29 N 0,0
26.03.2019 17:00:00 11,0 -2,1 28 15 48 26 N 0,0
26.03.2019 16:00:00 11,4 -1,4 26 14 52 28 N 0,0
26.03.2019 15:00:00 11,1 -1,7 31 17 55 30 NNE 0,0
26.03.2019 14:00:00 10,8 -0,7 28 15 48 26 N 0,0
26.03.2019 13:00:00 10,5 -0,1 26 14 48 26 N -
26.03.2019 12:00:00 9,5 -1,6 31 17 50 27 NNE 0,0
26.03.2019 11:00:00 8,5 -0,8 26 14 52 28 NNE 0,0
26.03.2019 10:00:00 7,8 -1,5 29 16 54 29 NNE 0,0
26.03.2019 09:00:00 6,1 1,2 22 12 41 22 NNE 0,0
26.03.2019 08:00:00 4,4 1,2 16 9 34 18 N 0,0
26.03.2019 07:00:00 3,2 0,8 21 11 41 22 N -
26.03.2019 06:00:00 3,4 1,0 21 11 39 21 NNE 0,0
26.03.2019 05:00:00 3,6 0,8 22 12 35 19 N 0,0
26.03.2019 04:00:00 3,6 0,6 16 9 34 18 NNE 0,0
26.03.2019 03:00:00 3,6 -0,1 21 11 37 20 N 0,0
26.03.2019 02:00:00 3,9 -0,5 18 10 34 18 N 0,0
26.03.2019 01:00:00 4,4 -0,8 16 9 31 17 N -
26.03.2019 00:00:00 5,1 -1,2 15 8 35 19 N 0,0
25.03.2019 23:00:00 5,7 -1,7 16 9 29 16 N 0,0
25.03.2019 22:00:00 5,7 -1,9 15 8 28 15 N 0,0
25.03.2019 21:00:00 6,9 -2,0 13 7 26 14 N 0,0
25.03.2019 20:00:00 7,3 -2,5 15 8 35 19 N 0,0
25.03.2019 19:00:00 8,1 -2,6 18 10 44 24 N -
25.03.2019 18:00:00 9,2 -2,1 22 12 44 24 N 0,0
25.03.2019 17:00:00 10,2 -0,1 24 13 42 23 N 0,0
25.03.2019 16:00:00 10,9 0,6 21 11 41 22 N 0,0
25.03.2019 15:00:00 9,7 0,0 18 10 42 23 N 0,0
25.03.2019 14:00:00 9,6 -0,1 26 14 48 26 N 0,0
25.03.2019 13:00:00 10,1 -0,1 26 14 46 25 NNW -
25.03.2019 12:00:00 10,8 0,8 21 11 41 22 N 0,0
25.03.2019 11:00:00 10,7 2,5 24 13 39 21 NNE 0,0
25.03.2019 10:00:00 9,1 3,7 15 8 28 15 NNE 0,0
25.03.2019 09:00:00 7,2 4,5 16 9 24 13 N 0,0
25.03.2019 08:00:00 6,0 4,0 13 7 21 11 NNW 0,0
25.03.2019 07:00:00 5,5 3,8 9 5 15 8 N -
25.03.2019 06:00:00 6,0 4,5 9 5 15 8 N 0,0
25.03.2019 05:00:00 5,9 4,4 4 2 5 3 NNW 0,0
25.03.2019 04:00:00 5,1 3,4 4 2 9 5 ENE 0,0
25.03.2019 03:00:00 5,5 3,8 0 0 11 6 N 0,0
25.03.2019 02:00:00 6,0 3,8 8 4 13 7 N 0,0
25.03.2019 01:00:00 6,7 3,5 2 1 11 6 ENE -
25.03.2019 00:00:00 7,5 3,5 4 2 11 6 N 0,0
24.03.2019 23:00:00 8,3 3,9 5 3 13 7 NNW 0,0
24.03.2019 22:00:00 9,3 3,9 5 3 15 8 NNW 0,0
24.03.2019 21:00:00 10,2 3,9 8 4 22 12 NW 0,0
24.03.2019 20:00:00 11,8 3,3 13 7 24 13 NNW 0,0
24.03.2019 19:00:00 12,8 4,0 15 8 31 17 N -
24.03.2019 18:00:00 15,8 6,2 8 4 21 11 NW 0,0
24.03.2019 17:00:00 17,0 6,2 8 4 21 11 WNW 0,0
24.03.2019 16:00:00 17,2 5,8 8 4 22 12 NW 0,0
24.03.2019 15:00:00 16,9 5,2 8 4 21 11 NNW 0,0
24.03.2019 14:00:00 16,2 3,9 8 4 29 16 WNW 0,0
24.03.2019 13:00:00 15,4 6,7 11 6 21 11 NW -
24.03.2019 12:00:00 13,8 6,2 8 4 16 9 SW 0,0
24.03.2019 11:00:00 11,5 6,4 8 4 16 9 WSW 0,0
24.03.2019 10:00:00 9,6 5,6 9 5 16 9 SW 0,0
24.03.2019 09:00:00 7,0 4,6 11 6 16 9 SSW 0,0
24.03.2019 08:00:00 6,4 2,7 5 3 11 6 S 0,0
24.03.2019 07:00:00 3,7 -0,1 11 6 16 9 SSE -
24.03.2019 06:00:00 4,9 -0,1 8 4 13 7 SE 0,0
24.03.2019 05:00:00 5,4 0,2 9 5 13 7 SE 0,0
24.03.2019 04:00:00 5,5 0,5 9 5 13 7 SE 0,0
24.03.2019 03:00:00 7,2 0,4 0 0 8 4 N 0,0
24.03.2019 02:00:00 7,5 0,7 4 2 11 6 ESE 0,0
24.03.2019 01:00:00 9,0 0,7 4 2 13 7 NE -
24.03.2019 00:00:00 9,7 0,8 13 7 18 10 N 0,0
23.03.2019 23:00:00 10,6 0,6 9 5 16 9 E 0,0
23.03.2019 22:00:00 12,3 0,7 11 6 15 8 E 0,0
23.03.2019 21:00:00 11,8 1,1 11 6 16 9 ENE 0,0
23.03.2019 20:00:00 13,4 0,7 11 6 21 11 NNE 0,0
23.03.2019 19:00:00 16,0 0,5 11 6 22 12 NNE -
23.03.2019 18:00:00 17,7 0,8 13 7 26 14 N 0,0
23.03.2019 17:00:00 18,7 1,7 15 8 28 15 NNW 0,0
23.03.2019 16:00:00 18,7 2,1 16 9 29 16 NNW 0,0
23.03.2019 15:00:00 18,9 2,7 15 8 29 16 NW 0,0
23.03.2019 14:00:00 18,5 3,1 15 8 28 15 NNW 0,0
23.03.2019 13:00:00 18,2 2,9 13 7 24 13 N -
23.03.2019 12:00:00 16,4 5,4 11 6 21 11 NW 0,0
23.03.2019 11:00:00 14,6 3,7 8 4 13 7 NW 0,0
23.03.2019 10:00:00 13,0 2,8 2 1 8 4 NW 0,0
23.03.2019 09:00:00 12,3 0,7 2 1 5 3 SE 0,0
23.03.2019 08:00:00 9,7 1,1 2 1 11 6 N 0,0
23.03.2019 07:00:00 7,3 -1,9 9 5 15 8 ESE -
23.03.2019 06:00:00 7,4 -1,1 11 6 13 7 ESE 0,0
23.03.2019 05:00:00 7,3 -0,7 4 2 13 7 ESE 0,0
23.03.2019 04:00:00 7,4 -0,1 8 4 9 5 ESE 0,0
23.03.2019 03:00:00 8,3 0,3 4 2 16 9 NNE 0,0
23.03.2019 02:00:00 8,9 0,6 13 7 18 10 SE 0,0
23.03.2019 01:00:00 9,9 0,5 8 4 16 9 ESE -
23.03.2019 00:00:00 11,1 0,8 13 7 18 10 ESE 0,0
22.03.2019 23:00:00 11,3 0,4 9 5 13 7 E 0,0
22.03.2019 22:00:00 11,7 0,1 9 5 13 7 E 0,0
22.03.2019 21:00:00 11,3 1,5 8 4 9 5 E 0,0
22.03.2019 20:00:00 12,9 1,8 5 3 8 4 E 0,0
22.03.2019 19:00:00 15,6 0,2 4 2 5 3 NNE -
22.03.2019 18:00:00 16,9 0,5 5 3 11 6 N 0,0
22.03.2019 17:00:00 17,8 2,5 5 3 16 9 NNW 0,0
22.03.2019 16:00:00 18,5 3,5 4 2 18 10 W 0,0
22.03.2019 15:00:00 17,8 2,5 8 4 16 9 SW 0,0
22.03.2019 14:00:00 16,6 3,3 9 5 18 10 SW 0,0
22.03.2019 13:00:00 15,3 2,8 8 4 15 8 SSW -
22.03.2019 12:00:00 14,5 3,0 4 2 11 6 NW 0,0
22.03.2019 11:00:00 12,5 1,8 5 3 13 7 WSW 0,0
22.03.2019 10:00:00 11,3 2,3 4 2 9 5 SW 0,0
22.03.2019 09:00:00 8,9 0,8 8 4 16 9 SE 0,0
22.03.2019 08:00:00 5,9 0,4 11 6 21 11 SE 0,0
22.03.2019 07:00:00 3,7 -0,9 13 7 16 9 ESE -
22.03.2019 06:00:00 3,6 -0,6 13 7 18 10 ESE 0,0
22.03.2019 05:00:00 4,3 -0,5 9 5 15 8 ESE 0,0
22.03.2019 04:00:00 4,7 -0,3 8 4 11 6 ESE 0,0
22.03.2019 03:00:00 5,4 -0,2 8 4 13 7 SE 0,0
22.03.2019 02:00:00 5,1 -0,1 11 6 16 9 SE 0,0
22.03.2019 01:00:00 5,3 -0,1 9 5 15 8 ESE -
22.03.2019 00:00:00 6,0 -0,3 9 5 15 8 SE 0,0
21.03.2019 23:00:00 6,2 -0,1 11 6 13 7 SE 0,0
21.03.2019 22:00:00 7,2 0,4 8 4 11 6 SE 0,0
21.03.2019 21:00:00 8,4 0,6 9 5 11 6 SE 0,0
21.03.2019 20:00:00 10,8 -0,7 4 2 8 4 SSE 0,0
21.03.2019 19:00:00 12,2 -1,0 8 4 13 7 WNW -
21.03.2019 18:00:00 13,9 0,2 8 4 16 9 NW 0,0
21.03.2019 17:00:00 14,8 1,7 8 4 22 12 NW 0,0
21.03.2019 16:00:00 14,4 2,0 11 6 21 11 NW 0,0
21.03.2019 15:00:00 13,2 -0,1 11 6 21 11 NW 0,0
21.03.2019 14:00:00 13,1 0,1 5 3 15 8 SSW 0,0
21.03.2019 13:00:00 12,1 1,1 5 3 15 8 WSW -
21.03.2019 12:00:00 9,8 -1,9 8 4 18 10 SW 0,0
21.03.2019 11:00:00 8,6 0,8 11 6 18 10 SW 0,0
21.03.2019 10:00:00 8,5 -1,1 0 0 9 5 N 0,0
21.03.2019 09:00:00 6,8 -1,4 5 3 11 6 ESE 0,0
21.03.2019 08:00:00 4,2 -2,0 4 2 9 5 ESE 0,0
21.03.2019 07:00:00 2,5 -3,2 8 4 16 9 E -
21.03.2019 06:00:00 2,7 -2,8 4 2 22 12 NNE 0,0
21.03.2019 05:00:00 2,5 -2,4 15 8 21 11 ENE 0,0
21.03.2019 04:00:00 1,6 -2,0 16 9 22 12 ENE 0,0
21.03.2019 03:00:00 2,3 -1,9 13 7 15 8 NE 0,0
21.03.2019 02:00:00 4,1 -1,5 5 3 26 14 NNE 0,0
21.03.2019 01:00:00 5,5 -1,4 16 9 29 16 N -
21.03.2019 00:00:00 6,6 -1,3 15 8 29 16 N 0,0
20.03.2019 23:00:00 7,6 -1,1 16 9 29 16 N 0,0
20.03.2019 22:00:00 7,5 -0,7 15 8 41 22 NNE 0,0
20.03.2019 21:00:00 8,8 -0,8 21 11 34 18 NNE 0,0
20.03.2019 20:00:00 9,2 -1,3 22 12 35 19 NNE 0,0

tt = temperature
td = dewpoint
ff = wind speed
fx = gusts
dd = wind direction
rr = precipitation

Next stations